,

(GMT )
Al Udeid

Weather History for KQIR - February, 2013

Change the Weather History Date:

Thursday, February 14, 2013

  Actual Average Record
Temperature  
Mean Temperature 64 °F -  
Max Temperature 73 °F - - ()
Min Temperature 55 °F - - ()
Growing Degree Days 14 (Base 50)    
Moisture  
Dew Point 47 °F    
Average Humidity 52    
Maximum Humidity 73    
Minimum Humidity 32    
Precipitation  
Precipitation 0.00 in - - ()
Sea Level Pressure  
Sea Level Pressure 30.06 in    
Wind  
Wind Speed 17 mph ()    
Max Wind Speed 28 mph    
Max Gust Speed 32 mph    
Visibility 4.9 miles    
Events      
Averages and records for this station are not official NWS values.
T = Trace of Precipitation, MM = Missing Value Source: Averaged Metar Reports

Daily Weather History Graph

Daily Weather History Graph

Search for Another Location

Airport or City:

Astronomy

Feb. 14, 2013 Rise Set
Actual Time 6:10 AM +03 5:28 PM +03
Civil Twilight 5:46 AM +03 5:51 PM +03
Nautical Twilight 5:19 AM +03 6:18 PM +03
Astronomical Twilight 4:52 AM +03 6:45 PM +03
Moon 8:31 AM +03 (2/14) 9:31 PM +03 (2/14)
Length of Visible Light 12h 04m
Length of Day
11h 18m
Waxing Crescent, 18% of the Moon is Illuminated
Feb 14
Waxing Crescent
Feb 17
First Quarter
Feb 25
Full
Mar 5
Last Quarter
Mar 11
New

Hourly Weather History & Observations

Time (+03) Temp. Dew Point Humidity Pressure Visibility Wind Dir Wind Speed Gust Speed Precip Events Conditions
12:55 AM 58.5 °F 49.6 °F 72% 30.04 in 6.2 mi NW 15.0 mph - N/A   Clear
1:55 AM 57.7 °F 47.8 °F 70% 30.03 in 6.2 mi NW 12.7 mph - N/A   Clear
2:55 AM 58.1 °F 48.0 °F 69% 30.03 in 6.2 mi NW 13.8 mph - N/A   Clear
3:55 AM 57.0 °F 47.8 °F 71% 30.03 in 6.2 mi NW 10.4 mph - N/A   Clear
4:55 AM 57.2 °F 47.5 °F 70% 30.04 in 6.2 mi NW 13.8 mph - N/A   Clear
5:55 AM 57.2 °F 47.7 °F 70% 30.06 in 6.2 mi NW 13.8 mph - N/A   Clear
6:55 AM 57.7 °F 49.3 °F 73% 30.08 in 6.2 mi NW 13.8 mph - N/A   Clear
7:55 AM 62.1 °F 50.7 °F 66% 30.10 in 6.2 mi NW 18.4 mph - N/A   Clear
8:37 AM 64.4 °F 51.8 °F 64% 30.10 in - NW 24.2 mph - N/A   Haze
8:41 AM 64.4 °F 51.8 °F 64% 30.10 in 2.5 mi NW 25.3 mph - N/A   Haze
8:43 AM 64.4 °F 51.8 °F 64% 30.10 in - NW 25.3 mph - N/A   Haze
8:44 AM 64.4 °F 51.8 °F 64% 30.10 in 1.7 mi NW 24.2 mph - N/A   Haze
8:46 AM 66.2 °F 51.8 °F 60% 30.10 in 5.0 mi NW 23.0 mph - N/A   Haze
8:55 AM 65.8 °F 50.9 °F 58% 30.11 in 5.0 mi NW 24.2 mph - N/A   Haze
9:55 AM 68.5 °F 48.6 °F 49% 30.10 in 5.0 mi NNW 25.3 mph - 0.00 in   Haze
9:58 AM 68.0 °F 48.2 °F 49% 30.10 in 1.2 mi NW 26.5 mph - N/A   Haze
9:59 AM 68.0 °F 48.2 °F 49% 30.10 in 1.0 mi NW 24.2 mph - N/A   Light Drizzle
10:00 AM 68.0 °F 50.0 °F 52% 30.10 in 1.2 mi NW 24.2 mph - N/A   Light Drizzle
10:04 AM 68.0 °F 48.2 °F 49% 30.10 in 1.0 mi NNW 26.5 mph - N/A   Light Drizzle
10:55 AM 70.3 °F 47.7 °F 44% 30.09 in 5.6 mi NW 20.7 mph - N/A   Haze
11:55 AM 71.2 °F 46.0 °F 40% 30.07 in 5.0 mi NW 19.6 mph 28.8 mph N/A   Haze
12:55 PM 72.1 °F 44.4 °F 37% 30.04 in 5.0 mi NW 25.3 mph - N/A   Haze
12:59 PM 71.6 °F 44.6 °F 38% 30.04 in 3.7 mi NW 23.0 mph - N/A   Haze
1:01 PM 71.6 °F 44.6 °F 38% 30.04 in - NNW 27.6 mph 31.1 mph N/A   Haze
1:12 PM 73.4 °F 44.6 °F 36% 30.04 in 3.7 mi NW 21.9 mph 31.1 mph N/A   Haze
1:23 PM 71.6 °F 44.6 °F 38% 30.04 in - NW 25.3 mph - N/A   Haze
1:25 PM 71.6 °F 44.6 °F 38% 30.04 in 3.7 mi NW 21.9 mph 26.5 mph N/A   Haze
1:55 PM 72.3 °F 45.0 °F 37% 30.03 in 6.2 mi NW 23.0 mph 32.2 mph N/A   Clear
2:22 PM 73.4 °F 44.6 °F 36% 30.02 in 2.5 mi NW 23.0 mph - N/A   Haze
2:23 PM 73.4 °F 44.6 °F 36% 30.02 in - NW 23.0 mph - N/A   Haze
2:37 PM 73.4 °F 46.4 °F 38% 30.01 in 5.0 mi NW 23.0 mph - N/A   Haze
2:55 PM 72.1 °F 43.7 °F 36% 30.01 in 6.2 mi NW 21.9 mph - N/A   Clear
3:55 PM 71.2 °F 42.3 °F 35% 30.01 in 6.2 mi NW 24.2 mph - N/A   Clear
4:55 PM 68.7 °F 37.9 °F 32% 30.02 in 6.2 mi NNW 21.9 mph - N/A   Clear
5:55 PM 65.1 °F 39.9 °F 40% 30.04 in 6.2 mi NNW 18.4 mph - N/A   Clear
6:55 PM 62.1 °F 43.5 °F 51% 30.06 in 6.2 mi NNW 16.1 mph - N/A   Clear
7:55 PM 60.1 °F 45.1 °F 58% 30.07 in 6.2 mi NNW 13.8 mph - N/A   Clear
8:55 PM 58.8 °F 45.1 °F 60% 30.08 in 6.2 mi NW 12.7 mph - N/A   Clear
9:55 PM 58.5 °F 44.2 °F 59% 30.08 in 6.2 mi NW 11.5 mph - N/A   Clear
10:55 PM 56.1 °F 44.6 °F 65% 30.06 in 6.2 mi NW 9.2 mph - N/A   Clear
11:55 PM 55.8 °F 44.2 °F 65% 30.06 in 6.2 mi NW 8.1 mph - N/A   Clear